Change the Weather History Date:

Wednesday, September 17, 2014

  Actual Average Record
Temperature  
Mean Temperature 56 °F -  
Max Temperature 69 °F 74 °F 91 °F (1972)
Min Temperature 43 °F 52 °F 41 °F (1990)
Degree Days  
Heating Degree Days 9    
Growing Degree Days 6 (Base 50)    
Moisture  
Dew Point 48 °F    
Average Humidity 74    
Maximum Humidity 94    
Minimum Humidity 51    
Precipitation  
Precipitation 0.00 in - - ()
Sea Level Pressure  
Sea Level Pressure 30.03 in    
Wind  
Wind Speed 2 mph (WSW)    
Max Wind Speed 10 mph    
Max Gust Speed -    
Visibility 10 miles    
Events      
Averages and records for this station are not official NWS values.
T = Trace of Precipitation, MM = Missing Value Source: NWS Daily Summary

Daily Weather History Graph

Daily Weather History Graph

Search for Another Location

Airport or City:

Trip Planner

Search our weather history database for the weather conditions in past years. The results will help you decide how hot, cold, wet, or windy it might be!

Date:

Astronomy

Sep. 17, 2014 Rise Set
Actual Time 6:39 AM CDT 7:02 PM CDT
Civil Twilight 6:11 AM CDT 7:30 PM CDT
Nautical Twilight 5:38 AM CDT 8:02 PM CDT
Astronomical Twilight 5:05 AM CDT 8:35 PM CDT
Moon 12:36 AM CDT (9/17) 3:14 PM CDT (9/17)
Length of Visible Light 13h 18m
Length of Day
12h 23m
Waning Crescent, 34% of the Moon is Illuminated
Sep 17
Waning Crescent
Sep 24
New
Oct 1
First Quarter
Oct 8
Full
Oct 15
Last Quarter

Hourly Weather History & Observations

Time (CDT) Temp. Windchill Dew Point Humidity Pressure Visibility Wind Dir Wind Speed Gust Speed Precip Events Conditions
12:15 AM 48.7 °F - 44.6 °F 86% 30.09 in 10.0 mi Calm Calm - N/A   Clear
12:35 AM 48.6 °F - 44.4 °F 86% 30.09 in 10.0 mi NE 3.5 mph - N/A   Clear
12:55 AM 47.5 °F - 43.2 °F 85% 30.09 in 10.0 mi NE 3.5 mph - N/A   Clear
1:15 AM 46.6 °F - 43.3 °F 88% 30.09 in 10.0 mi Calm Calm - N/A   Clear
1:35 AM 45.3 °F - 42.3 °F 89% 30.09 in 10.0 mi Calm Calm - N/A   Clear
1:55 AM 45.9 °F - 42.4 °F 88% 30.08 in 10.0 mi Calm Calm - N/A   Clear
2:15 AM 45.9 °F - 42.4 °F 88% 30.08 in 10.0 mi Calm Calm - N/A   Clear
2:35 AM 46.4 °F - 42.8 °F 87% 30.07 in 10.0 mi Calm Calm - N/A   Clear
2:55 AM 46.2 °F - 43.3 °F 90% 30.07 in 10.0 mi Calm Calm - N/A   Clear
3:15 AM 44.8 °F - 41.7 °F 89% 30.07 in 10.0 mi Calm Calm - N/A   Clear
3:35 AM 46.4 °F - 44.2 °F 92% 30.07 in 10.0 mi Calm Calm - N/A   Clear
3:55 AM 45.5 °F - 43.3 °F 92% 30.06 in 10.0 mi Calm Calm - N/A   Clear
4:15 AM 45.9 °F - 44.1 °F 93% 30.06 in 10.0 mi Calm Calm - N/A   Clear
4:35 AM 45.9 °F - 44.1 °F 93% 30.06 in 10.0 mi Calm Calm - N/A   Clear
4:55 AM 45.3 °F 44.0 °F 43.2 °F 92% 30.06 in 10.0 mi SSE 3.5 mph - N/A   Clear
5:15 AM 44.8 °F - 43.0 °F 93% 30.06 in 10.0 mi Calm Calm - N/A   Clear
5:35 AM 44.4 °F - 42.4 °F 93% 30.06 in 10.0 mi Calm Calm - N/A   Clear
5:55 AM 43.9 °F - 42.3 °F 94% 30.06 in 10.0 mi Calm Calm - N/A   Clear
6:15 AM 45.0 °F - 43.3 °F 94% 30.06 in 10.0 mi Calm Calm - N/A   Clear
6:35 AM 44.8 °F - 43.0 °F 93% 30.06 in 10.0 mi Calm Calm - N/A   Clear
6:55 AM 44.8 °F 43.3 °F 43.0 °F 93% 30.05 in 10.0 mi East 3.5 mph - N/A   Clear
7:15 AM 45.0 °F 43.5 °F 43.0 °F 93% 30.05 in 10.0 mi East 3.5 mph - N/A   Clear
7:35 AM 45.9 °F - 44.1 °F 93% 30.05 in 10.0 mi Calm Calm - N/A   Clear
7:55 AM 48.9 °F - 46.6 °F 92% 30.05 in 10.0 mi Calm Calm - N/A   Scattered Clouds
8:15 AM 50.4 °F - 47.1 °F 89% 30.04 in 10.0 mi Calm Calm - N/A   Scattered Clouds
8:35 AM 52.2 °F - 48.0 °F 86% 30.05 in 10.0 mi Calm Calm - N/A   Clear
8:55 AM 54.7 °F - 48.9 °F 81% 30.04 in 10.0 mi Calm Calm - N/A   Clear
9:15 AM 57.4 °F - 50.4 °F 77% 30.04 in 10.0 mi Calm Calm - N/A   Clear
9:35 AM 59.4 °F - 50.9 °F 74% 30.05 in 10.0 mi Calm Calm - N/A   Clear
9:55 AM 60.4 °F - 50.9 °F 71% 30.04 in 10.0 mi Calm Calm - N/A   Clear
10:15 AM 62.4 °F - 51.1 °F 66% 30.04 in 10.0 mi Calm Calm - N/A   Clear
10:35 AM 62.6 °F - 50.0 °F 63% 30.04 in 10.0 mi Calm Calm - N/A   Clear
10:55 AM 64.2 °F - 51.6 °F 64% 30.04 in 10.0 mi Calm Calm - N/A   Clear
11:15 AM 65.3 °F - 49.8 °F 57% 30.05 in 10.0 mi WSW 5.8 mph - N/A   Clear
11:35 AM 66.0 °F - 50.9 °F 58% 30.04 in 10.0 mi SSW 4.6 mph - N/A   Scattered Clouds
11:55 AM 64.4 °F - 51.4 °F 63% 30.04 in 10.0 mi SW 5.8 mph - N/A   Mostly Cloudy
12:15 PM 65.3 °F - 51.1 °F 60% 30.04 in 10.0 mi SW 5.8 mph - N/A   Mostly Cloudy
12:35 PM 67.3 °F - 50.5 °F 55% 30.04 in 10.0 mi WSW 8.1 mph - N/A   Mostly Cloudy
12:55 PM 68.0 °F - 50.0 °F 52% 30.03 in 10.0 mi WSW 6.9 mph - N/A   Scattered Clouds
1:15 PM 68.2 °F - 50.9 °F 54% 30.02 in 10.0 mi SW 9.2 mph - N/A   Scattered Clouds
1:35 PM 67.6 °F - 49.5 °F 52% 30.02 in 10.0 mi WSW 5.8 mph - N/A   Clear
1:55 PM 68.0 °F - 49.8 °F 52% 30.01 in 10.0 mi WNW 3.5 mph - N/A   Clear
2:15 PM 68.9 °F - 49.8 °F 51% 30.01 in 10.0 mi South 5.8 mph - N/A   Clear
2:35 PM 69.1 °F - 51.6 °F 54% 30.00 in 10.0 mi SW 10.4 mph - N/A   Clear
2:55 PM 68.2 °F - 51.1 °F 54% 30.00 in 10.0 mi WSW 8.1 mph - N/A   Clear
3:15 PM 68.4 °F - 51.4 °F 55% 29.99 in 10.0 mi WSW 8.1 mph - N/A   Clear
3:35 PM 68.7 °F - 50.7 °F 53% 29.99 in 10.0 mi WSW 4.6 mph - N/A   Clear
3:55 PM 68.7 °F - 51.1 °F 53% 29.99 in 10.0 mi SSE 3.5 mph - N/A   Clear
4:15 PM 68.7 °F - 51.1 °F 53% 29.98 in 10.0 mi SW 3.5 mph - N/A   Clear
4:35 PM 68.4 °F - 51.4 °F 55% 29.98 in 10.0 mi Calm Calm - N/A   Clear
4:55 PM 68.2 °F - 51.4 °F 55% 29.97 in 10.0 mi West 4.6 mph - N/A   Clear
5:15 PM 68.2 °F - 51.6 °F 55% 29.97 in 10.0 mi WNW 3.5 mph - N/A   Clear
5:35 PM 68.0 °F - 50.7 °F 54% 29.97 in 10.0 mi Calm Calm - N/A   Clear
5:55 PM 68.0 °F - 51.3 °F 55% 29.97 in 10.0 mi Calm Calm - N/A   Clear
6:15 PM 67.5 °F - 51.8 °F 57% 29.98 in 10.0 mi NNW 3.5 mph - N/A   Clear
6:35 PM 66.4 °F - 51.4 °F 59% 29.98 in 10.0 mi NW 3.5 mph - N/A   Clear
6:55 PM 64.9 °F - 52.3 °F 64% 29.98 in 10.0 mi Calm Calm - N/A   Clear
7:15 PM 64.4 °F - 51.8 °F 64% 29.98 in 10.0 mi North 4.6 mph - N/A   Clear
7:35 PM 62.6 °F - 50.9 °F 66% 29.98 in 10.0 mi North 3.5 mph - N/A   Clear
7:55 PM 62.6 °F - 50.7 °F 65% 29.99 in 10.0 mi Calm Calm - N/A   Clear
8:15 PM 61.2 °F - 50.9 °F 69% 30.00 in 10.0 mi Calm Calm - N/A   Clear
8:35 PM 57.6 °F - 51.8 °F 81% 30.01 in 10.0 mi SSW 3.5 mph - N/A   Clear
8:55 PM 59.0 °F - 52.7 °F 80% 30.01 in 10.0 mi Calm Calm - N/A   Clear
9:15 PM 57.4 °F - 52.2 °F 83% 30.02 in 10.0 mi Calm Calm - N/A   Clear
9:35 PM 57.4 °F - 51.1 °F 79% 30.02 in 10.0 mi Calm Calm - N/A   Clear
9:55 PM 56.7 °F - 50.9 °F 81% 30.02 in 10.0 mi Calm Calm - N/A   Clear
10:15 PM 56.5 °F - 50.9 °F 82% 30.03 in 10.0 mi Calm Calm - N/A   Clear
10:35 PM 56.3 °F - 50.9 °F 82% 30.03 in 10.0 mi Calm Calm - N/A   Clear
10:55 PM 55.2 °F - 50.4 °F 84% 30.04 in 10.0 mi North 3.5 mph - N/A   Clear
11:15 PM 55.2 °F - 50.0 °F 83% 30.04 in 10.0 mi North 4.6 mph - N/A   Clear
11:35 PM 53.6 °F - 48.7 °F 84% 30.04 in 10.0 mi Calm Calm - N/A   Clear
11:55 PM 53.1 °F - 48.7 °F 85% 30.04 in 10.0 mi Calm Calm - N/A   Clear